Time,TemperatureF,DewpointF,PressureIn,WindDirection,WindDirectionDegrees,WindSpeedMPH,WindSpeedGustMPH,Humidity,HourlyPrecipIn,Conditions,Clouds,dailyrainin,SoftwareType,DateUTC
2013-09-19 00:00:00,50.1,47.3,30.12,SSE,156,0.0,0.0,90,0.00,,,0.00,WeatherCatV1.20B785,2013-09-19 04:00:00,
2013-09-19 00:01:00,50.1,47.3,30.12,SSE,156,0.0,0.0,90,0.00,,,0.00,WeatherCatV1.20B785,2013-09-19 04:01:00,
2013-09-19 00:02:00,50.1,47.3,30.12,SSE,156,0.0,0.0,90,0.00,,,0.00,WeatherCatV1.20B785,2013-09-19 04:02:00,
2013-09-19 00:03:00,50.0,47.2,30.12,SSE,157,0.0,0.0,90,0.00,,,0.00,WeatherCatV1.20B785,2013-09-19 04:03:00,
2013-09-19 00:04:00,50.0,47.2,30.12,South,169,0.0,0.0,90,0.00,,,0.00,WeatherCatV1.20B785,2013-09-19 04:04:00,
2013-09-19 00:05:00,49.9,47.1,30.12,SSE,159,0.0,0.0,90,0.00,,,0.00,WeatherCatV1.20B785,2013-09-19 04:05:00,
2013-09-19 00:09:00,49.9,47.1,30.12,SSE,164,0.0,1.0,90,0.00,,,0.00,WeatherCatV1.20B785,2013-09-19 04:09:00,
2013-09-19 00:10:00,49.9,47.1,30.12,SSE,163,0.0,1.0,90,0.00,,,0.00,WeatherCatV1.20B785,2013-09-19 04:10:00,
2013-09-19 00:11:00,49.9,47.1,30.12,SSE,164,0.0,0.0,90,0.00,,,0.00,WeatherCatV1.20B785,2013-09-19 04:11:00,
2013-09-19 00:15:00,49.9,47.1,30.13,SSE,164,0.0,1.0,90,0.00,,,0.00,WeatherCatV1.20B785,2013-09-19 04:15:00,
2013-09-19 00:16:00,49.8,47.0,30.12,SSE,163,0.0,0.0,90,0.00,,,0.00,WeatherCatV1.20B785,2013-09-19 04:16:00,
2013-09-19 00:20:00,49.8,47.0,30.13,SSE,164,0.0,0.0,90,0.00,,,0.00,WeatherCatV1.20B785,2013-09-19 04:20:00,
2013-09-19 00:21:00,49.8,47.0,30.13,SSE,163,0.0,0.0,90,0.00,,,0.00,WeatherCatV1.20B785,2013-09-19 04:21:00,
2013-09-19 00:24:00,49.7,46.9,30.12,SSE,163,0.0,0.0,90,0.00,,,0.00,WeatherCatV1.20B785,2013-09-19 04:24:00,
2013-09-19 00:25:00,49.7,46.9,30.12,SSE,163,0.0,0.0,90,0.00,,,0.00,WeatherCatV1.20B785,2013-09-19 04:25:00,
2013-09-19 00:29:00,49.4,46.6,30.12,SSE,163,0.0,0.0,90,0.00,,,0.00,WeatherCatV1.20B785,2013-09-19 04:29:00,
2013-09-19 00:30:00,49.4,46.6,30.12,SSE,163,0.0,0.0,90,0.00,,,0.00,WeatherCatV1.20B785,2013-09-19 04:30:00,
2013-09-19 00:34:00,49.0,46.2,30.12,SSE,164,0.0,0.0,90,0.00,,,0.00,WeatherCatV1.20B785,2013-09-19 04:34:00,
2013-09-19 00:35:00,49.0,46.2,30.12,SSE,163,0.0,0.0,90,0.00,,,0.00,WeatherCatV1.20B785,2013-09-19 04:35:00,
2013-09-19 00:39:00,49.0,46.2,30.12,SSE,163,0.0,0.0,90,0.00,,,0.00,WeatherCatV1.20B785,2013-09-19 04:39:00,
2013-09-19 00:40:00,49.0,46.2,30.12,SSE,163,0.0,0.0,90,0.00,,,0.00,WeatherCatV1.20B785,2013-09-19 04:40:00,
2013-09-19 00:44:00,48.7,45.9,30.12,SSE,164,0.0,0.0,90,0.00,,,0.00,WeatherCatV1.20B785,2013-09-19 04:44:00,
2013-09-19 00:45:00,48.6,45.8,30.12,SSE,163,0.0,0.0,90,0.00,,,0.00,WeatherCatV1.20B785,2013-09-19 04:45:00,
2013-09-19 00:49:00,48.4,45.6,30.13,SSE,163,0.0,0.0,90,0.00,,,0.00,WeatherCatV1.20B785,2013-09-19 04:49:00,
2013-09-19 00:50:00,48.4,45.6,30.13,SSE,163,0.0,0.0,90,0.00,,,0.00,WeatherCatV1.20B785,2013-09-19 04:50:00,
2013-09-19 00:54:00,48.0,45.5,30.12,SSE,163,0.0,0.0,91,0.00,,,0.00,WeatherCatV1.20B785,2013-09-19 04:54:00,
2013-09-19 00:55:00,48.0,45.5,30.12,SSE,163,0.0,0.0,91,0.00,,,0.00,WeatherCatV1.20B785,2013-09-19 04:55:00,
2013-09-19 00:59:00,47.7,44.9,30.13,SSE,163,0.0,0.0,90,0.00,,,0.00,WeatherCatV1.20B785,2013-09-19 04:59:00,
2013-09-19 01:00:00,47.7,44.9,30.13,SSE,163,0.0,0.0,90,0.00,,,0.00,WeatherCatV1.20B785,2013-09-19 05:00:00,
2013-09-19 01:04:00,47.6,44.8,30.12,SSE,163,0.0,0.0,90,0.00,,,0.00,WeatherCatV1.20B785,2013-09-19 05:04:00,
2013-09-19 01:05:00,47.6,44.8,30.12,SSE,163,0.0,0.0,90,0.00,,,0.00,WeatherCatV1.20B785,2013-09-19 05:05:00,
2013-09-19 01:09:00,47.7,44.9,30.12,SSE,164,0.0,0.0,90,0.00,,,0.00,WeatherCatV1.20B785,2013-09-19 05:09:00,
2013-09-19 01:10:00,47.7,44.9,30.12,SSE,164,0.0,0.0,90,0.00,,,0.00,WeatherCatV1.20B785,2013-09-19 05:10:00,
2013-09-19 01:14:00,47.6,44.8,30.12,SSE,164,0.0,0.0,90,0.00,,,0.00,WeatherCatV1.20B785,2013-09-19 05:14:00,
2013-09-19 01:15:00,47.6,44.8,30.12,SSE,163,0.0,0.0,90,0.00,,,0.00,WeatherCatV1.20B785,2013-09-19 05:15:00,
2013-09-19 01:19:00,47.7,44.9,30.12,SSE,163,0.0,0.0,90,0.00,,,0.00,WeatherCatV1.20B785,2013-09-19 05:19:00,
2013-09-19 01:20:00,47.8,45.0,30.12,SSE,163,0.0,0.0,90,0.00,,,0.00,WeatherCatV1.20B785,2013-09-19 05:20:00,
2013-09-19 01:24:00,48.0,45.2,30.12,SSE,164,0.0,0.0,90,0.00,,,0.00,WeatherCatV1.20B785,2013-09-19 05:24:00,
2013-09-19 01:25:00,48.0,45.2,30.12,SSE,163,0.0,0.0,90,0.00,,,0.00,WeatherCatV1.20B785,2013-09-19 05:25:00,
2013-09-19 01:29:00,48.4,45.6,30.12,SSE,152,0.0,1.0,90,0.00,,,0.00,WeatherCatV1.20B785,2013-09-19 05:29:00,
2013-09-19 01:30:00,48.5,45.4,30.12,SSE,157,0.0,0.0,89,0.00,,,0.00,WeatherCatV1.20B785,2013-09-19 05:30:00,
2013-09-19 01:34:00,48.3,45.5,30.12,SSE,163,1.0,1.0,90,0.00,,,0.00,WeatherCatV1.20B785,2013-09-19 05:34:00,
2013-09-19 01:35:00,48.3,45.5,30.12,SSE,159,0.0,1.0,90,0.00,,,0.00,WeatherCatV1.20B785,2013-09-19 05:35:00,
2013-09-19 01:39:00,48.4,45.6,30.12,SSE,162,1.0,1.0,90,0.00,,,0.00,WeatherCatV1.20B785,2013-09-19 05:39:00,
2013-09-19 01:40:00,48.4,45.6,30.12,SSE,161,0.0,1.0,90,0.00,,,0.00,WeatherCatV1.20B785,2013-09-19 05:40:00,
2013-09-19 01:44:00,48.3,45.5,30.12,SSE,160,0.0,0.0,90,0.00,,,0.00,WeatherCatV1.20B785,2013-09-19 05:44:00,
2013-09-19 01:45:00,48.3,45.5,30.12,SSE,161,0.0,1.0,90,0.00,,,0.00,WeatherCatV1.20B785,2013-09-19 05:45:00,
2013-09-19 01:49:00,48.3,45.5,30.12,SSE,160,0.0,0.0,90,0.00,,,0.00,WeatherCatV1.20B785,2013-09-19 05:49:00,
2013-09-19 01:50:00,48.3,45.5,30.12,SSE,160,0.0,0.0,90,0.00,,,0.00,WeatherCatV1.20B785,2013-09-19 05:50:00,
2013-09-19 01:54:00,48.5,45.7,30.12,SSE,160,0.0,0.0,90,0.00,,,0.00,WeatherCatV1.20B785,2013-09-19 05:54:00,
2013-09-19 01:55:00,48.5,45.7,30.12,SSE,160,0.0,0.0,90,0.00,,,0.00,WeatherCatV1.20B785,2013-09-19 05:55:00,
2013-09-19 01:59:00,48.6,45.8,30.12,SSE,161,0.0,0.0,90,0.00,,,0.00,WeatherCatV1.20B785,2013-09-19 05:59:00,
2013-09-19 02:00:00,48.6,45.8,30.12,SSE,160,0.0,0.0,90,0.00,,,0.00,WeatherCatV1.20B785,2013-09-19 06:00:00,
2013-09-19 02:04:00,48.7,45.9,30.12,SSE,160,0.0,0.0,90,0.00,,,0.00,WeatherCatV1.20B785,2013-09-19 06:04:00,
2013-09-19 02:05:00,48.7,45.9,30.12,SSE,160,0.0,0.0,90,0.00,,,0.00,WeatherCatV1.20B785,2013-09-19 06:05:00,
2013-09-19 02:09:00,48.7,45.9,30.12,SSE,161,0.0,0.0,90,0.00,,,0.00,WeatherCatV1.20B785,2013-09-19 06:09:00,
2013-09-19 02:10:00,48.6,45.8,30.12,SSE,160,0.0,0.0,90,0.00,,,0.00,WeatherCatV1.20B785,2013-09-19 06:10:00,
2013-09-19 02:14:00,48.7,45.9,30.12,SSE,161,0.0,0.0,90,0.00,,,0.00,WeatherCatV1.20B785,2013-09-19 06:14:00,
2013-09-19 02:15:00,48.7,45.9,30.12,SSE,160,0.0,0.0,90,0.00,,,0.00,WeatherCatV1.20B785,2013-09-19 06:15:00,
2013-09-19 02:19:00,48.7,45.9,30.12,SSE,160,0.0,0.0,90,0.00,,,0.00,WeatherCatV1.20B785,2013-09-19 06:19:00,
2013-09-19 02:20:00,48.7,45.9,30.12,SSE,160,0.0,0.0,90,0.00,,,0.00,WeatherCatV1.20B785,2013-09-19 06:20:00,
2013-09-19 02:24:00,48.6,45.8,30.12,SSE,160,0.0,0.0,90,0.00,,,0.00,WeatherCatV1.20B785,2013-09-19 06:24:00,
2013-09-19 02:25:00,48.5,45.7,30.12,SSE,160,0.0,0.0,90,0.00,,,0.00,WeatherCatV1.20B785,2013-09-19 06:25:00,
2013-09-19 02:29:00,48.4,45.6,30.12,SSE,160,0.0,0.0,90,0.00,,,0.00,WeatherCatV1.20B785,2013-09-19 06:29:00,
2013-09-19 02:30:00,48.4,45.6,30.12,SSE,160,0.0,0.0,90,0.00,,,0.00,WeatherCatV1.20B785,2013-09-19 06:30:00,
2013-09-19 02:34:00,48.4,45.6,30.12,SSE,160,0.0,0.0,90,0.00,,,0.00,WeatherCatV1.20B785,2013-09-19 06:34:00,
2013-09-19 02:35:00,48.4,45.6,30.12,SSE,160,0.0,0.0,90,0.00,,,0.00,WeatherCatV1.20B785,2013-09-19 06:35:00,
2013-09-19 02:39:00,48.3,45.5,30.12,SSE,161,0.0,0.0,90,0.00,,,0.00,WeatherCatV1.20B785,2013-09-19 06:39:00,
2013-09-19 02:40:00,48.3,45.5,30.12,SSE,160,0.0,0.0,90,0.00,,,0.00,WeatherCatV1.20B785,2013-09-19 06:40:00,
2013-09-19 02:44:00,48.2,45.4,30.12,SSE,160,0.0,0.0,90,0.00,,,0.00,WeatherCatV1.20B785,2013-09-19 06:44:00,
2013-09-19 02:45:00,48.2,45.4,30.12,SSE,161,0.0,0.0,90,0.00,,,0.00,WeatherCatV1.20B785,2013-09-19 06:45:00,
2013-09-19 02:49:00,48.3,45.5,30.12,SSE,160,0.0,0.0,90,0.00,,,0.00,WeatherCatV1.20B785,2013-09-19 06:49:00,
2013-09-19 02:50:00,48.3,45.5,30.12,SSE,160,0.0,0.0,90,0.00,,,0.00,WeatherCatV1.20B785,2013-09-19 06:50:00,
2013-09-19 02:54:00,48.3,45.5,30.12,SSE,161,0.0,0.0,90,0.00,,,0.00,WeatherCatV1.20B785,2013-09-19 06:54:00,
2013-09-19 02:55:00,48.3,45.5,30.12,SSE,160,0.0,0.0,90,0.00,,,0.00,WeatherCatV1.20B785,2013-09-19 06:55:00,
2013-09-19 02:59:00,48.3,45.5,30.12,SSE,162,0.0,0.0,90,0.00,,,0.00,WeatherCatV1.20B785,2013-09-19 06:59:00,
2013-09-19 03:00:00,48.3,45.5,30.12,SSE,162,0.0,0.0,90,0.00,,,0.00,WeatherCatV1.20B785,2013-09-19 07:00:00,
2013-09-19 03:04:00,48.2,45.4,30.12,SSE,163,0.0,0.0,90,0.00,,,0.00,WeatherCatV1.20B785,2013-09-19 07:04:00,
2013-09-19 03:05:00,48.3,45.5,30.12,SSE,163,0.0,0.0,90,0.00,,,0.00,WeatherCatV1.20B785,2013-09-19 07:05:00,
2013-09-19 03:09:00,48.1,45.3,30.12,SSE,153,1.0,1.0,90,0.00,,,0.00,WeatherCatV1.20B785,2013-09-19 07:09:00,
2013-09-19 03:10:00,48.0,45.2,30.12,SSE,157,0.0,0.0,90,0.00,,,0.00,WeatherCatV1.20B785,2013-09-19 07:10:00,
2013-09-19 03:14:00,47.8,45.0,30.12,SSE,152,0.0,1.0,90,0.00,,,0.00,WeatherCatV1.20B785,2013-09-19 07:14:00,
2013-09-19 03:15:00,47.8,45.0,30.12,SSE,153,0.0,1.0,90,0.00,,,0.00,WeatherCatV1.20B785,2013-09-19 07:15:00,
2013-09-19 03:19:00,47.7,44.9,30.12,SSE,156,0.0,0.0,90,0.00,,,0.00,WeatherCatV1.20B785,2013-09-19 07:19:00,
2013-09-19 03:20:00,47.7,44.9,30.12,SSE,155,0.0,0.0,90,0.00,,,0.00,WeatherCatV1.20B785,2013-09-19 07:20:00,
2013-09-19 03:24:00,47.9,45.1,30.12,SSE,157,0.0,0.0,90,0.00,,,0.00,WeatherCatV1.20B785,2013-09-19 07:24:00,
2013-09-19 03:25:00,47.9,45.1,30.12,SSE,156,0.0,0.0,90,0.00,,,0.00,WeatherCatV1.20B785,2013-09-19 07:25:00,
2013-09-19 03:29:00,48.4,45.6,30.12,SSE,157,0.0,0.0,90,0.00,,,0.00,WeatherCatV1.20B785,2013-09-19 07:29:00,
2013-09-19 03:30:00,48.4,45.6,30.12,SSE,156,0.0,0.0,90,0.00,,,0.00,WeatherCatV1.20B785,2013-09-19 07:30:00,
2013-09-19 03:34:00,48.8,46.0,30.12,SSE,155,0.0,0.0,90,0.00,,,0.00,WeatherCatV1.20B785,2013-09-19 07:34:00,
2013-09-19 03:35:00,48.9,46.1,30.12,SSE,156,0.0,0.0,90,0.00,,,0.00,WeatherCatV1.20B785,2013-09-19 07:35:00,
2013-09-19 03:39:00,49.2,46.4,30.11,SSE,156,0.0,0.0,90,0.00,,,0.00,WeatherCatV1.20B785,2013-09-19 07:39:00,
2013-09-19 03:40:00,49.2,46.4,30.11,SSE,156,0.0,0.0,90,0.00,,,0.00,WeatherCatV1.20B785,2013-09-19 07:40:00,
2013-09-19 03:44:00,49.5,46.7,30.11,SSE,156,0.0,0.0,90,0.00,,,0.00,WeatherCatV1.20B785,2013-09-19 07:44:00,
2013-09-19 03:45:00,49.5,46.7,30.11,SSE,156,0.0,0.0,90,0.00,,,0.00,WeatherCatV1.20B785,2013-09-19 07:45:00,
2013-09-19 03:49:00,49.7,46.9,30.11,SSE,160,1.0,1.0,90,0.00,,,0.00,WeatherCatV1.20B785,2013-09-19 07:49:00,
2013-09-19 03:50:00,49.8,47.0,30.11,SSE,158,0.0,1.0,90,0.00,,,0.00,WeatherCatV1.20B785,2013-09-19 07:50:00,
2013-09-19 03:54:00,50.0,47.2,30.11,SSE,160,0.0,0.0,90,0.00,,,0.00,WeatherCatV1.20B785,2013-09-19 07:54:00,
2013-09-19 03:55:00,50.0,47.2,30.11,SSE,159,0.0,0.0,90,0.00,,,0.00,WeatherCatV1.20B785,2013-09-19 07:55:00,
2013-09-19 03:59:00,50.1,47.3,30.11,SSE,160,0.0,0.0,90,0.00,,,0.00,WeatherCatV1.20B785,2013-09-19 07:59:00,
2013-09-19 04:00:00,50.1,47.3,30.11,SSE,160,0.0,0.0,90,0.00,,,0.00,WeatherCatV1.20B785,2013-09-19 08:00:00,
2013-09-19 04:04:00,50.2,47.4,30.11,SSE,160,0.0,0.0,90,0.00,,,0.00,WeatherCatV1.20B785,2013-09-19 08:04:00,
2013-09-19 04:05:00,50.2,47.4,30.11,SSE,160,0.0,0.0,90,0.00,,,0.00,WeatherCatV1.20B785,2013-09-19 08:05:00,
2013-09-19 04:09:00,50.4,47.6,30.11,SSE,161,0.0,0.0,90,0.00,,,0.00,WeatherCatV1.20B785,2013-09-19 08:09:00,
2013-09-19 04:10:00,50.4,47.6,30.11,SSE,160,0.0,1.0,90,0.00,,,0.00,WeatherCatV1.20B785,2013-09-19 08:10:00,
2013-09-19 04:15:00,50.4,47.6,30.11,SSE,153,0.0,1.0,90,0.00,,,0.00,WeatherCatV1.20B785,2013-09-19 08:15:00,
2013-09-19 04:20:00,50.3,47.5,30.11,SSE,153,0.0,1.0,90,0.00,,,0.00,WeatherCatV1.20B785,2013-09-19 08:20:00,
2013-09-19 04:25:00,50.1,47.3,30.11,SSE,154,0.0,0.0,90,0.00,,,0.00,WeatherCatV1.20B785,2013-09-19 08:25:00,
2013-09-19 04:30:00,50.0,47.2,30.11,SSE,155,0.0,0.0,90,0.00,,,0.00,WeatherCatV1.20B785,2013-09-19 08:30:00,
2013-09-19 04:35:00,50.1,47.3,30.11,SSE,155,0.0,1.0,90,0.00,,,0.00,WeatherCatV1.20B785,2013-09-19 08:35:00,
2013-09-19 04:40:00,50.2,47.4,30.11,SSE,155,1.0,1.0,90,0.00,,,0.00,WeatherCatV1.20B785,2013-09-19 08:40:00,
2013-09-19 04:45:00,50.4,47.6,30.11,SSE,152,0.0,0.0,90,0.00,,,0.00,WeatherCatV1.20B785,2013-09-19 08:45:00,
2013-09-19 04:50:00,50.6,47.8,30.11,SSE,155,1.0,1.0,90,0.00,,,0.00,WeatherCatV1.20B785,2013-09-19 08:50:00,
2013-09-19 04:55:00,50.8,48.0,30.11,SSE,160,1.0,1.0,90,0.00,,,0.00,WeatherCatV1.20B785,2013-09-19 08:55:00,
2013-09-19 05:00:00,50.8,48.0,30.11,SSE,161,0.0,0.0,90,0.00,,,0.00,WeatherCatV1.20B785,2013-09-19 09:00:00,
2013-09-19 05:05:00,50.8,48.0,30.11,SSE,157,0.0,0.0,90,0.00,,,0.00,WeatherCatV1.20B785,2013-09-19 09:05:00,
2013-09-19 05:10:00,50.7,48.2,30.11,SSE,158,0.0,0.0,91,0.00,,,0.00,WeatherCatV1.20B785,2013-09-19 09:10:00,
2013-09-19 05:15:00,50.7,48.2,30.11,SSE,155,0.0,2.0,91,0.00,,,0.00,WeatherCatV1.20B785,2013-09-19 09:15:00,
2013-09-19 05:20:00,50.6,47.5,30.11,SSE,162,1.0,1.0,89,0.00,,,0.00,WeatherCatV1.20B785,2013-09-19 09:20:00,
2013-09-19 05:25:00,50.6,47.8,30.10,SSE,159,0.0,0.0,90,0.00,,,0.00,WeatherCatV1.20B785,2013-09-19 09:25:00,
2013-09-19 05:30:00,50.6,47.8,30.10,SE,135,0.0,0.0,90,0.00,,,0.00,WeatherCatV1.20B785,2013-09-19 09:30:00,
2013-09-19 05:35:00,50.6,47.8,30.11,SE,141,0.0,0.0,90,0.00,,,0.00,WeatherCatV1.20B785,2013-09-19 09:35:00,
2013-09-19 05:40:00,50.7,47.9,30.11,SSE,159,0.0,1.0,90,0.00,,,0.00,WeatherCatV1.20B785,2013-09-19 09:40:00,
2013-09-19 05:45:00,50.7,47.9,30.11,SSE,157,0.0,1.0,90,0.00,,,0.00,WeatherCatV1.20B785,2013-09-19 09:45:00,
2013-09-19 05:50:00,50.8,48.0,30.11,SSE,151,0.0,1.0,90,0.00,,,0.00,WeatherCatV1.20B785,2013-09-19 09:50:00,
2013-09-19 05:55:00,50.8,48.0,30.11,SSE,152,0.0,1.0,90,0.00,,,0.00,WeatherCatV1.20B785,2013-09-19 09:55:00,
2013-09-19 06:00:00,50.9,48.1,30.11,SSE,156,1.0,1.0,90,0.00,,,0.00,WeatherCatV1.20B785,2013-09-19 10:00:00,
2013-09-19 06:05:00,51.0,48.2,30.10,SSE,156,1.0,1.0,90,0.00,,,0.00,WeatherCatV1.20B785,2013-09-19 10:05:00,
2013-09-19 06:10:00,51.0,48.2,30.10,SSE,152,1.0,2.0,90,0.00,,,0.00,WeatherCatV1.20B785,2013-09-19 10:10:00,
2013-09-19 06:15:00,51.1,48.3,30.10,SSE,155,1.0,1.0,90,0.00,,,0.00,WeatherCatV1.20B785,2013-09-19 10:15:00,
2013-09-19 06:20:00,51.1,48.3,30.10,SSE,155,0.0,1.0,90,0.00,,,0.00,WeatherCatV1.20B785,2013-09-19 10:20:00,
2013-09-19 06:25:00,51.2,48.4,30.10,SSE,154,0.0,0.0,90,0.00,,,0.00,WeatherCatV1.20B785,2013-09-19 10:25:00,
2013-09-19 06:30:00,51.4,48.6,30.10,SSE,153,0.0,0.0,90,0.00,,,0.00,WeatherCatV1.20B785,2013-09-19 10:30:00,
2013-09-19 06:35:00,51.5,48.7,30.10,SSE,153,0.0,0.0,90,0.00,,,0.00,WeatherCatV1.20B785,2013-09-19 10:35:00,
2013-09-19 06:40:00,51.6,48.8,30.10,SSE,153,0.0,1.0,90,0.00,,,0.00,WeatherCatV1.20B785,2013-09-19 10:40:00,
2013-09-19 06:45:00,51.7,48.9,30.10,SSE,152,1.0,2.0,90,0.00,,,0.00,WeatherCatV1.20B785,2013-09-19 10:45:00,
2013-09-19 06:50:00,51.8,49.0,30.10,SE,146,0.0,2.0,90,0.00,,,0.00,WeatherCatV1.20B785,2013-09-19 10:50:00,
2013-09-19 06:55:00,51.9,49.1,30.10,SSE,158,1.0,2.0,90,0.00,,,0.00,WeatherCatV1.20B785,2013-09-19 10:55:00,
2013-09-19 07:00:00,51.9,49.1,30.10,SSE,158,1.0,2.0,90,0.00,,,0.00,WeatherCatV1.20B785,2013-09-19 11:00:00,
2013-09-19 07:05:00,52.0,49.2,30.10,SE,144,0.0,0.0,90,0.00,,,0.00,WeatherCatV1.20B785,2013-09-19 11:05:00,
2013-09-19 07:10:00,52.1,49.3,30.10,ESE,119,0.0,1.0,90,0.00,,,0.00,WeatherCatV1.20B785,2013-09-19 11:10:00,
2013-09-19 07:15:00,52.1,49.3,30.10,East,82,0.0,1.0,90,0.00,,,0.00,WeatherCatV1.20B785,2013-09-19 11:15:00,
2013-09-19 07:20:00,52.1,49.3,30.11,ESE,103,0.0,0.0,90,0.00,,,0.00,WeatherCatV1.20B785,2013-09-19 11:20:00,
2013-09-19 07:25:00,52.1,49.3,30.11,SE,146,0.0,1.0,90,0.00,,,0.00,WeatherCatV1.20B785,2013-09-19 11:25:00,
2013-09-19 07:30:00,52.1,49.3,30.11,SSE,148,0.0,0.0,90,0.00,,,0.00,WeatherCatV1.20B785,2013-09-19 11:30:00,
2013-09-19 07:35:00,52.2,49.3,30.11,SSE,148,0.0,0.0,90,0.00,,,0.00,WeatherCatV1.20B785,2013-09-19 11:35:00,
2013-09-19 07:40:00,52.2,49.3,30.11,SSE,155,0.0,1.0,90,0.00,,,0.00,WeatherCatV1.20B785,2013-09-19 11:40:00,
2013-09-19 07:45:00,52.3,49.5,30.11,SSE,155,0.0,0.0,90,0.00,,,0.00,WeatherCatV1.20B785,2013-09-19 11:45:00,
2013-09-19 07:50:00,52.4,49.5,30.12,SSE,156,0.0,0.0,90,0.00,,,0.00,WeatherCatV1.20B785,2013-09-19 11:50:00,
2013-09-19 07:55:00,52.5,49.7,30.12,SSE,156,0.0,0.0,90,0.00,,,0.00,WeatherCatV1.20B785,2013-09-19 11:55:00,
2013-09-19 08:00:00,52.5,49.7,30.12,SSE,158,0.0,1.0,90,0.00,,,0.00,WeatherCatV1.20B785,2013-09-19 12:00:00,
2013-09-19 08:05:00,52.7,49.8,30.12,SSE,156,1.0,1.0,90,0.00,,,0.00,WeatherCatV1.20B785,2013-09-19 12:05:00,
2013-09-19 08:10:00,52.8,50.0,30.12,SSE,158,0.0,0.0,90,0.00,,,0.00,WeatherCatV1.20B785,2013-09-19 12:10:00,
2013-09-19 08:15:00,53.0,50.1,30.11,SSE,158,0.0,0.0,90,0.00,,,0.00,WeatherCatV1.20B785,2013-09-19 12:15:00,
2013-09-19 08:20:00,53.2,50.3,30.12,SE,134,0.0,1.0,90,0.00,,,0.00,WeatherCatV1.20B785,2013-09-19 12:20:00,
2013-09-19 08:25:00,53.4,50.5,30.11,SE,133,0.0,1.0,90,0.00,,,0.00,WeatherCatV1.20B785,2013-09-19 12:25:00,
2013-09-19 08:30:00,53.7,50.8,30.11,SSE,148,0.0,1.0,90,0.00,,,0.00,WeatherCatV1.20B785,2013-09-19 12:30:00,
2013-09-19 08:35:00,54.0,51.1,30.11,ESE,113,0.0,1.0,90,0.00,,,0.00,WeatherCatV1.20B785,2013-09-19 12:35:00,
2013-09-19 08:40:00,54.2,51.3,30.11,SSE,156,0.0,1.0,90,0.00,,,0.00,WeatherCatV1.20B785,2013-09-19 12:40:00,
2013-09-19 08:45:00,54.6,51.7,30.11,SSE,155,0.0,0.0,90,0.00,,,0.00,WeatherCatV1.20B785,2013-09-19 12:45:00,
2013-09-19 08:50:00,54.9,52.0,30.11,ESE,119,0.0,3.0,90,0.00,,,0.00,WeatherCatV1.20B785,2013-09-19 12:50:00,
2013-09-19 08:55:00,55.2,52.3,30.11,East,96,1.0,2.0,90,0.00,,,0.00,WeatherCatV1.20B785,2013-09-19 12:55:00,
2013-09-19 09:00:00,55.6,52.7,30.12,East,96,0.0,1.0,90,0.00,,,0.00,WeatherCatV1.20B785,2013-09-19 13:00:00,
2013-09-19 09:05:00,56.0,53.1,30.12,SSE,155,0.0,0.0,90,0.00,,,0.00,WeatherCatV1.20B785,2013-09-19 13:05:00,
2013-09-19 09:10:00,56.5,53.6,30.11,SSE,152,0.0,1.0,90,0.00,,,0.00,WeatherCatV1.20B785,2013-09-19 13:10:00,
2013-09-19 09:15:00,57.0,54.1,30.11,SSE,159,0.0,1.0,90,0.00,,,0.00,WeatherCatV1.20B785,2013-09-19 13:15:00,
2013-09-19 09:20:00,57.5,54.3,30.12,ESE,108,1.0,1.0,89,0.00,,,0.00,WeatherCatV1.20B785,2013-09-19 13:20:00,
2013-09-19 09:25:00,57.9,54.7,30.12,SSE,149,0.0,1.0,89,0.00,,,0.00,WeatherCatV1.20B785,2013-09-19 13:25:00,
2013-09-19 09:30:00,58.3,55.1,30.12,SSE,160,0.0,1.0,89,0.00,,,0.00,WeatherCatV1.20B785,2013-09-19 13:30:00,
2013-09-19 09:35:00,58.7,55.5,30.12,East,79,1.0,1.0,89,0.00,,,0.00,WeatherCatV1.20B785,2013-09-19 13:35:00,
2013-09-19 09:40:00,59.0,55.5,30.12,East,95,0.0,1.0,88,0.00,,,0.00,WeatherCatV1.20B785,2013-09-19 13:40:00,
2013-09-19 09:45:00,59.5,55.9,30.13,ESE,114,0.0,1.0,88,0.00,,,0.00,WeatherCatV1.20B785,2013-09-19 13:45:00,
2013-09-19 09:50:00,60.1,56.5,30.13,ENE,69,1.0,1.0,88,0.00,,,0.00,WeatherCatV1.20B785,2013-09-19 13:50:00,
2013-09-19 09:55:00,60.4,56.8,30.13,ESE,107,0.0,0.0,88,0.00,,,0.00,WeatherCatV1.20B785,2013-09-19 13:55:00,
2013-09-19 09:56:00,60.5,56.9,30.13,East,96,0.0,1.0,88,0.00,,,0.00,WeatherCatV1.20B785,2013-09-19 13:56:00,
2013-09-19 10:00:00,61.0,57.4,30.12,East,98,0.0,1.0,88,0.00,,,0.00,WeatherCatV1.20B785,2013-09-19 14:00:00,
2013-09-19 10:01:00,61.2,57.3,30.12,SSE,159,0.0,1.0,87,0.00,,,0.00,WeatherCatV1.20B785,2013-09-19 14:01:00,
2013-09-19 10:05:00,61.4,57.5,30.12,SE,136,0.0,1.0,87,0.00,,,0.00,WeatherCatV1.20B785,2013-09-19 14:05:00,
2013-09-19 10:06:00,61.5,57.6,30.12,ENE,72,0.0,3.0,87,0.00,,,0.00,WeatherCatV1.20B785,2013-09-19 14:06:00,
2013-09-19 10:10:00,61.7,57.8,30.12,East,99,1.0,1.0,87,0.00,,,0.00,WeatherCatV1.20B785,2013-09-19 14:10:00,
2013-09-19 10:11:00,61.9,57.7,30.12,East,91,0.0,2.0,86,0.00,,,0.00,WeatherCatV1.20B785,2013-09-19 14:11:00,
2013-09-19 10:15:00,62.1,58.2,30.12,ESE,110,1.0,2.0,87,0.00,,,0.00,WeatherCatV1.20B785,2013-09-19 14:15:00,
2013-09-19 10:16:00,62.3,58.0,30.12,ENE,74,2.0,3.0,86,0.00,,,0.00,WeatherCatV1.20B785,2013-09-19 14:16:00,
2013-09-19 10:20:00,62.9,59.0,30.11,East,97,1.0,3.0,87,0.00,,,0.00,WeatherCatV1.20B785,2013-09-19 14:20:00,
2013-09-19 10:21:00,62.9,58.6,30.12,SE,136,0.0,3.0,86,0.00,,,0.00,WeatherCatV1.20B785,2013-09-19 14:21:00,
2013-09-19 10:25:00,63.3,59.0,30.12,ESE,110,1.0,1.0,86,0.00,,,0.00,WeatherCatV1.20B785,2013-09-19 14:25:00,
2013-09-19 10:26:00,63.5,59.6,30.12,SSE,155,2.0,2.0,87,0.00,,,0.00,WeatherCatV1.20B785,2013-09-19 14:26:00,
2013-09-19 10:30:00,64.0,59.7,30.12,SSE,153,1.0,1.0,86,0.00,,,0.00,WeatherCatV1.20B785,2013-09-19 14:30:00,
2013-09-19 10:31:00,64.1,59.8,30.11,South,188,0.0,1.0,86,0.00,,,0.00,WeatherCatV1.20B785,2013-09-19 14:31:00,
2013-09-19 10:35:00,64.5,59.9,30.11,SE,124,0.0,0.0,85,0.00,,,0.00,WeatherCatV1.20B785,2013-09-19 14:35:00,
2013-09-19 10:36:00,64.6,60.0,30.11,ESE,102,0.0,0.0,85,0.00,,,0.00,WeatherCatV1.20B785,2013-09-19 14:36:00,
2013-09-19 10:40:00,65.0,60.4,30.11,SSE,150,1.0,5.0,85,0.00,,,0.00,WeatherCatV1.20B785,2013-09-19 14:40:00,
2013-09-19 10:41:00,65.0,60.4,30.11,South,177,3.0,5.0,85,0.00,,,0.00,WeatherCatV1.20B785,2013-09-19 14:41:00,
2013-09-19 10:45:00,65.3,60.3,30.11,SSE,168,2.0,3.0,84,0.00,,,0.00,WeatherCatV1.20B785,2013-09-19 14:45:00,
2013-09-19 10:46:00,65.4,60.4,30.11,SSW,195,4.0,5.0,84,0.00,,,0.00,WeatherCatV1.20B785,2013-09-19 14:46:00,
2013-09-19 10:50:00,65.5,60.5,30.11,SW,215,2.0,2.0,84,0.00,,,0.00,WeatherCatV1.20B785,2013-09-19 14:50:00,
2013-09-19 10:51:00,65.6,60.6,30.11,SSW,203,1.0,2.0,84,0.00,,,0.00,WeatherCatV1.20B785,2013-09-19 14:51:00,
2013-09-19 10:55:00,66.0,60.7,30.11,SSW,192,2.0,4.0,83,0.00,,,0.00,WeatherCatV1.20B785,2013-09-19 14:55:00,
2013-09-19 10:56:00,66.0,60.3,30.11,SSW,208,2.0,5.0,82,0.00,,,0.00,WeatherCatV1.20B785,2013-09-19 14:56:00,
2013-09-19 11:00:00,66.1,60.4,30.11,SSW,192,3.0,4.0,82,0.00,,,0.00,WeatherCatV1.20B785,2013-09-19 15:00:00,
2013-09-19 11:01:00,66.1,60.4,30.11,SSW,204,1.0,6.0,82,0.00,,,0.00,WeatherCatV1.20B785,2013-09-19 15:01:00,
2013-09-19 11:05:00,66.2,60.9,30.11,SSW,212,3.0,5.0,83,0.00,,,0.00,WeatherCatV1.20B785,2013-09-19 15:05:00,
2013-09-19 11:06:00,66.3,61.0,30.11,SSW,194,1.0,4.0,83,0.00,,,0.00,WeatherCatV1.20B785,2013-09-19 15:06:00,
2013-09-19 11:10:00,66.5,61.2,30.11,South,180,2.0,3.0,83,0.00,,,0.00,WeatherCatV1.20B785,2013-09-19 15:10:00,
2013-09-19 11:11:00,66.5,60.8,30.11,South,176,2.0,4.0,82,0.00,,,0.00,WeatherCatV1.20B785,2013-09-19 15:11:00,
2013-09-19 11:15:00,66.7,61.0,30.11,South,188,2.0,6.0,82,0.00,,,0.00,WeatherCatV1.20B785,2013-09-19 15:15:00,
2013-09-19 11:16:00,66.7,60.7,30.11,SW,219,4.0,6.0,81,0.00,,,0.00,WeatherCatV1.20B785,2013-09-19 15:16:00,
2013-09-19 11:20:00,66.9,61.2,30.11,South,191,3.0,3.0,82,0.00,,,0.00,WeatherCatV1.20B785,2013-09-19 15:20:00,
2013-09-19 11:21:00,67.0,61.0,30.11,SSE,158,0.0,2.0,81,0.00,,,0.00,WeatherCatV1.20B785,2013-09-19 15:21:00,
2013-09-19 11:25:00,67.3,61.6,30.11,SSW,208,2.0,5.0,82,0.00,,,0.00,WeatherCatV1.20B785,2013-09-19 15:25:00,
2013-09-19 11:26:00,67.3,60.9,30.11,West,280,3.0,5.0,80,0.00,,,0.00,WeatherCatV1.20B785,2013-09-19 15:26:00,
2013-09-19 11:30:00,67.2,61.2,30.11,SSW,212,1.0,3.0,81,0.00,,,0.00,WeatherCatV1.20B785,2013-09-19 15:30:00,
2013-09-19 11:31:00,67.2,61.2,30.11,SW,219,2.0,3.0,81,0.00,,,0.00,WeatherCatV1.20B785,2013-09-19 15:31:00,
2013-09-19 11:35:00,67.0,60.6,30.11,SSW,212,3.0,8.0,80,0.00,,,0.00,WeatherCatV1.20B785,2013-09-19 15:35:00,
2013-09-19 11:36:00,67.0,61.0,30.11,SW,215,3.0,7.0,81,0.00,,,0.00,WeatherCatV1.20B785,2013-09-19 15:36:00,
2013-09-19 11:40:00,66.9,60.5,30.11,SSW,206,3.0,5.0,80,0.00,,,0.00,WeatherCatV1.20B785,2013-09-19 15:40:00,
2013-09-19 11:41:00,66.9,60.5,30.11,SSW,199,0.0,2.0,80,0.00,,,0.00,WeatherCatV1.20B785,2013-09-19 15:41:00,
2013-09-19 11:45:00,67.3,60.9,30.10,SSW,197,2.0,5.0,80,0.00,,,0.00,WeatherCatV1.20B785,2013-09-19 15:45:00,
2013-09-19 11:46:00,67.4,61.0,30.10,SE,144,0.0,1.0,80,0.00,,,0.00,WeatherCatV1.20B785,2013-09-19 15:46:00,
2013-09-19 11:50:00,67.8,61.8,30.10,SSE,155,1.0,2.0,81,0.00,,,0.00,WeatherCatV1.20B785,2013-09-19 15:50:00,
2013-09-19 11:51:00,68.0,61.9,30.10,West,271,0.0,2.0,81,0.00,,,0.00,WeatherCatV1.20B785,2013-09-19 15:51:00,
2013-09-19 11:55:00,68.6,62.5,30.10,ESE,107,1.0,3.0,81,0.00,,,0.00,WeatherCatV1.20B785,2013-09-19 15:55:00,
2013-09-19 11:56:00,68.6,62.2,30.10,WSW,249,3.0,6.0,80,0.00,,,0.00,WeatherCatV1.20B785,2013-09-19 15:56:00,
2013-09-19 12:00:00,68.5,61.0,30.10,SSE,165,2.0,6.0,77,0.00,,,0.00,WeatherCatV1.20B785,2013-09-19 16:00:00,
2013-09-19 12:01:00,68.4,61.6,30.10,SW,222,3.0,6.0,79,0.00,,,0.00,WeatherCatV1.20B785,2013-09-19 16:01:00,
2013-09-19 12:05:00,68.1,60.6,30.09,SSW,205,3.0,4.0,77,0.00,,,0.00,WeatherCatV1.20B785,2013-09-19 16:05:00,
2013-09-19 12:06:00,68.1,60.6,30.09,SSW,207,2.0,4.0,77,0.00,,,0.00,WeatherCatV1.20B785,2013-09-19 16:06:00,
2013-09-19 12:10:00,68.1,61.0,30.09,SSW,208,2.0,2.0,78,0.00,,,0.00,WeatherCatV1.20B785,2013-09-19 16:10:00,
2013-09-19 12:11:00,68.1,61.0,30.09,SW,224,6.0,6.0,78,0.00,,,0.00,WeatherCatV1.20B785,2013-09-19 16:11:00,
2013-09-19 12:15:00,67.9,61.1,30.09,SW,225,2.0,2.0,79,0.00,,,0.00,WeatherCatV1.20B785,2013-09-19 16:15:00,
2013-09-19 12:16:00,67.8,61.0,30.09,SSW,211,3.0,3.0,79,0.00,,,0.00,WeatherCatV1.20B785,2013-09-19 16:16:00,
2013-09-19 12:20:00,67.9,61.5,30.08,SW,225,2.0,2.0,80,0.00,,,0.00,WeatherCatV1.20B785,2013-09-19 16:20:00,
2013-09-19 12:21:00,67.9,61.8,30.08,WSW,255,0.0,0.0,81,0.00,,,0.00,WeatherCatV1.20B785,2013-09-19 16:21:00,
2013-09-19 12:25:00,68.3,61.9,30.08,SSW,208,2.0,4.0,80,0.00,,,0.00,WeatherCatV1.20B785,2013-09-19 16:25:00,
2013-09-19 12:26:00,68.6,61.8,30.08,SSE,162,3.0,4.0,79,0.00,,,0.00,WeatherCatV1.20B785,2013-09-19 16:26:00,
2013-09-19 12:30:00,69.0,61.1,30.08,SW,227,2.0,4.0,76,0.00,,,0.00,WeatherCatV1.20B785,2013-09-19 16:30:00,
2013-09-19 12:31:00,69.0,61.1,30.08,NW,314,1.0,3.0,76,0.00,,,0.00,WeatherCatV1.20B785,2013-09-19 16:31:00,
2013-09-19 12:35:00,69.3,61.4,30.07,SW,222,2.0,4.0,76,0.00,,,0.00,WeatherCatV1.20B785,2013-09-19 16:35:00,
2013-09-19 12:36:00,69.4,61.9,30.07,SSE,161,3.0,3.0,77,0.00,,,0.00,WeatherCatV1.20B785,2013-09-19 16:36:00,
2013-09-19 12:40:00,69.9,61.2,30.07,SSE,162,2.0,2.0,74,0.00,,,0.00,WeatherCatV1.20B785,2013-09-19 16:40:00,
2013-09-19 12:41:00,69.9,61.6,30.07,SE,146,1.0,2.0,75,0.00,,,0.00,WeatherCatV1.20B785,2013-09-19 16:41:00,
2013-09-19 12:45:00,70.1,62.2,30.07,SE,144,2.0,3.0,76,0.00,,,0.00,WeatherCatV1.20B785,2013-09-19 16:45:00,
2013-09-19 12:46:00,70.2,61.5,30.07,SSE,156,3.0,4.0,74,0.00,,,0.00,WeatherCatV1.20B785,2013-09-19 16:46:00,
2013-09-19 12:50:00,70.4,62.1,30.07,SE,144,2.0,3.0,75,0.00,,,0.00,WeatherCatV1.20B785,2013-09-19 16:50:00,
2013-09-19 12:51:00,70.5,62.2,30.07,SSE,148,0.0,3.0,75,0.00,,,0.00,WeatherCatV1.20B785,2013-09-19 16:51:00,
2013-09-19 12:55:00,71.2,62.8,30.07,South,186,2.0,2.0,75,0.00,,,0.00,WeatherCatV1.20B785,2013-09-19 16:55:00,
2013-09-19 12:56:00,71.4,63.0,30.06,South,183,3.0,5.0,75,0.00,,,0.00,WeatherCatV1.20B785,2013-09-19 16:56:00,
2013-09-19 13:00:00,71.6,62.5,30.07,South,188,2.0,4.0,73,0.00,,,0.00,WeatherCatV1.20B785,2013-09-19 17:00:00,
2013-09-19 13:01:00,71.6,62.1,30.07,SW,216,7.0,8.0,72,0.00,,,0.00,WeatherCatV1.20B785,2013-09-19 17:01:00,
2013-09-19 13:05:00,71.7,62.2,30.06,SSW,208,3.0,6.0,72,0.00,,,0.00,WeatherCatV1.20B785,2013-09-19 17:05:00,
2013-09-19 13:06:00,71.8,62.7,30.06,SSE,165,2.0,6.0,73,0.00,,,0.00,WeatherCatV1.20B785,2013-09-19 17:06:00,
2013-09-19 13:10:00,72.0,62.1,30.06,SSW,192,3.0,6.0,71,0.00,,,0.00,WeatherCatV1.20B785,2013-09-19 17:10:00,
2013-09-19 13:11:00,72.1,61.8,30.06,SE,141,2.0,7.0,70,0.00,,,0.00,WeatherCatV1.20B785,2013-09-19 17:11:00,
2013-09-19 13:15:00,72.2,63.0,30.06,South,179,3.0,5.0,73,0.00,,,0.00,WeatherCatV1.20B785,2013-09-19 17:15:00,
2013-09-19 13:16:00,72.3,62.4,30.06,South,186,3.0,4.0,71,0.00,,,0.00,WeatherCatV1.20B785,2013-09-19 17:16:00,
2013-09-19 13:20:00,72.5,62.9,30.06,SSW,209,3.0,4.0,72,0.00,,,0.00,WeatherCatV1.20B785,2013-09-19 17:20:00,
2013-09-19 13:21:00,72.6,62.2,30.06,WNW,284,2.0,4.0,70,0.00,,,0.00,WeatherCatV1.20B785,2013-09-19 17:21:00,
2013-09-19 13:25:00,72.7,63.1,30.06,SW,236,3.0,3.0,72,0.00,,,0.00,WeatherCatV1.20B785,2013-09-19 17:25:00,
2013-09-19 13:26:00,72.7,63.5,30.06,South,170,3.0,4.0,73,0.00,,,0.00,WeatherCatV1.20B785,2013-09-19 17:26:00,
2013-09-19 13:30:00,72.9,62.1,30.06,SSW,204,2.0,3.0,69,0.00,,,0.00,WeatherCatV1.20B785,2013-09-19 17:30:00,
2013-09-19 13:31:00,73.0,62.2,30.05,South,181,3.0,4.0,69,0.00,,,0.00,WeatherCatV1.20B785,2013-09-19 17:31:00,
2013-09-19 13:35:00,73.3,62.5,30.05,SSW,195,3.0,4.0,69,0.00,,,0.00,WeatherCatV1.20B785,2013-09-19 17:35:00,
2013-09-19 13:36:00,73.5,63.1,30.06,SSE,155,2.0,4.0,70,0.00,,,0.00,WeatherCatV1.20B785,2013-09-19 17:36:00,
2013-09-19 13:40:00,73.6,62.4,30.06,SW,214,2.0,2.0,68,0.00,,,0.00,WeatherCatV1.20B785,2013-09-19 17:40:00,
2013-09-19 13:42:00,73.7,62.0,30.05,East,85,1.0,2.0,67,0.00,,,0.00,WeatherCatV1.20B785,2013-09-19 17:42:00,
2013-09-19 13:45:00,73.6,63.6,30.05,SE,140,1.0,3.0,71,0.00,,,0.00,WeatherCatV1.20B785,2013-09-19 17:45:00,
2013-09-19 13:47:00,73.6,62.0,30.05,South,187,4.0,5.0,67,0.00,,,0.00,WeatherCatV1.20B785,2013-09-19 17:47:00,
2013-09-19 13:50:00,73.7,62.9,30.05,SSE,168,2.0,5.0,69,0.00,,,0.00,WeatherCatV1.20B785,2013-09-19 17:50:00,
2013-09-19 13:53:00,73.3,62.1,30.05,WNW,290,2.0,4.0,68,0.00,,,0.00,WeatherCatV1.20B785,2013-09-19 17:53:00,
2013-09-19 13:55:00,73.2,62.4,30.05,SW,219,3.0,3.0,69,0.00,,,0.00,WeatherCatV1.20B785,2013-09-19 17:55:00,
2013-09-19 13:58:00,73.2,61.6,30.05,SSW,208,5.0,9.0,67,0.00,,,0.00,WeatherCatV1.20B785,2013-09-19 17:58:00,
2013-09-19 14:00:00,73.2,62.4,30.05,SW,227,3.0,5.0,69,0.00,,,0.00,WeatherCatV1.20B785,2013-09-19 18:00:00,
2013-09-19 14:03:00,73.0,62.6,30.05,SSE,163,2.0,7.0,70,0.00,,,0.00,WeatherCatV1.20B785,2013-09-19 18:03:00,
2013-09-19 14:05:00,73.0,62.6,30.05,SW,229,3.0,8.0,70,0.00,,,0.00,WeatherCatV1.20B785,2013-09-19 18:05:00,
2013-09-19 14:08:00,73.1,62.3,30.05,WNW,297,5.0,5.0,69,0.00,,,0.00,WeatherCatV1.20B785,2013-09-19 18:08:00,
2013-09-19 14:10:00,73.0,61.8,30.05,WSW,240,3.0,5.0,68,0.00,,,0.00,WeatherCatV1.20B785,2013-09-19 18:10:00,
2013-09-19 14:13:00,73.3,61.7,30.05,WSW,255,1.0,4.0,67,0.00,,,0.00,WeatherCatV1.20B785,2013-09-19 18:13:00,
2013-09-19 14:15:00,73.3,60.8,30.05,SW,231,2.0,6.0,65,0.00,,,0.00,WeatherCatV1.20B785,2013-09-19 18:15:00,
2013-09-19 14:18:00,73.6,61.5,30.04,SSW,204,1.0,5.0,66,0.00,,,0.00,WeatherCatV1.20B785,2013-09-19 18:18:00,
2013-09-19 14:20:00,73.7,62.0,30.04,SSW,206,3.0,5.0,67,0.00,,,0.00,WeatherCatV1.20B785,2013-09-19 18:20:00,
2013-09-19 14:23:00,73.8,61.7,30.04,SSE,167,5.0,6.0,66,0.00,,,0.00,WeatherCatV1.20B785,2013-09-19 18:23:00,
2013-09-19 14:25:00,73.9,61.4,30.04,SSW,207,3.0,3.0,65,0.00,,,0.00,WeatherCatV1.20B785,2013-09-19 18:25:00,
2013-09-19 14:28:00,74.0,61.9,30.04,SSW,205,0.0,5.0,66,0.00,,,0.00,WeatherCatV1.20B785,2013-09-19 18:28:00,
2013-09-19 14:30:00,74.1,62.4,30.04,SW,229,3.0,4.0,67,0.00,,,0.00,WeatherCatV1.20B785,2013-09-19 18:30:00,
2013-09-19 14:33:00,74.2,62.9,30.04,SW,222,8.0,8.0,68,0.00,,,0.00,WeatherCatV1.20B785,2013-09-19 18:33:00,
2013-09-19 14:35:00,74.2,61.7,30.04,SW,220,2.0,5.0,65,0.00,,,0.00,WeatherCatV1.20B785,2013-09-19 18:35:00,
2013-09-19 14:38:00,74.4,62.3,30.04,SSE,155,4.0,4.0,66,0.00,,,0.00,WeatherCatV1.20B785,2013-09-19 18:38:00,
2013-09-19 14:40:00,74.6,62.0,30.04,SSW,192,3.0,4.0,65,0.00,,,0.00,WeatherCatV1.20B785,2013-09-19 18:40:00,
2013-09-19 14:43:00,74.7,61.7,30.04,West,262,4.0,7.0,64,0.00,,,0.00,WeatherCatV1.20B785,2013-09-19 18:43:00,
2013-09-19 14:45:00,74.6,62.0,30.04,SW,217,3.0,9.0,65,0.00,,,0.00,WeatherCatV1.20B785,2013-09-19 18:45:00,
2013-09-19 14:48:00,74.5,61.9,30.04,SSW,205,6.0,6.0,65,0.00,,,0.00,WeatherCatV1.20B785,2013-09-19 18:48:00,
2013-09-19 14:50:00,74.6,62.5,30.04,SW,231,4.0,5.0,66,0.00,,,0.00,WeatherCatV1.20B785,2013-09-19 18:50:00,
2013-09-19 14:53:00,74.4,62.3,30.03,NNW,328,1.0,4.0,66,0.00,,,0.00,WeatherCatV1.20B785,2013-09-19 18:53:00,
2013-09-19 14:55:00,74.5,62.8,30.04,WSW,258,3.0,4.0,67,0.00,,,0.00,WeatherCatV1.20B785,2013-09-19 18:55:00,
2013-09-19 14:58:00,74.8,62.7,30.04,SW,226,0.0,0.0,66,0.00,,,0.00,WeatherCatV1.20B785,2013-09-19 18:58:00,
2013-09-19 15:00:00,75.1,62.9,30.04,SW,235,1.0,2.0,66,0.00,,,0.00,WeatherCatV1.20B785,2013-09-19 19:00:00,
2013-09-19 15:03:00,75.3,61.8,30.04,NW,311,2.0,5.0,63,0.00,,,0.00,WeatherCatV1.20B785,2013-09-19 19:03:00,
2013-09-19 15:05:00,75.0,62.4,30.04,WSW,253,1.0,5.0,65,0.00,,,0.00,WeatherCatV1.20B785,2013-09-19 19:05:00,
2013-09-19 15:08:00,74.8,61.8,30.04,SW,226,2.0,3.0,64,0.00,,,0.00,WeatherCatV1.20B785,2013-09-19 19:08:00,
2013-09-19 15:10:00,74.7,62.6,30.04,SW,236,2.0,3.0,66,0.00,,,0.00,WeatherCatV1.20B785,2013-09-19 19:10:00,
2013-09-19 15:13:00,74.8,61.8,30.03,South,180,1.0,6.0,64,0.00,,,0.00,WeatherCatV1.20B785,2013-09-19 19:13:00,
2013-09-19 15:15:00,74.9,63.2,30.03,SW,222,2.0,4.0,67,0.00,,,0.00,WeatherCatV1.20B785,2013-09-19 19:15:00,
2013-09-19 15:18:00,74.8,62.2,30.03,SSE,163,2.0,5.0,65,0.00,,,0.00,WeatherCatV1.20B785,2013-09-19 19:18:00,
2013-09-19 15:20:00,74.9,61.4,30.03,SW,220,3.0,6.0,63,0.00,,,0.00,WeatherCatV1.20B785,2013-09-19 19:20:00,
2013-09-19 15:23:00,74.8,61.3,30.03,WNW,293,3.0,5.0,63,0.00,,,0.00,WeatherCatV1.20B785,2013-09-19 19:23:00,
2013-09-19 15:25:00,74.7,61.2,30.03,WSW,254,3.0,4.0,63,0.00,,,0.00,WeatherCatV1.20B785,2013-09-19 19:25:00,
2013-09-19 15:28:00,74.5,61.5,30.03,SSW,208,4.0,6.0,64,0.00,,,0.00,WeatherCatV1.20B785,2013-09-19 19:28:00,
2013-09-19 15:30:00,74.6,61.6,30.03,SSW,210,3.0,7.0,64,0.00,,,0.00,WeatherCatV1.20B785,2013-09-19 19:30:00,
2013-09-19 15:33:00,74.6,62.5,30.03,West,270,0.0,3.0,66,0.00,,,0.00,WeatherCatV1.20B785,2013-09-19 19:33:00,
2013-09-19 15:35:00,74.7,62.6,30.03,SW,226,3.0,3.0,66,0.00,,,0.00,WeatherCatV1.20B785,2013-09-19 19:35:00,
2013-09-19 15:38:00,74.7,61.2,30.03,SSW,197,1.0,3.0,63,0.00,,,0.00,WeatherCatV1.20B785,2013-09-19 19:38:00,
2013-09-19 15:40:00,74.6,61.6,30.03,WSW,241,2.0,5.0,64,0.00,,,0.00,WeatherCatV1.20B785,2013-09-19 19:40:00,
2013-09-19 15:43:00,74.5,61.9,30.03,SW,226,2.0,6.0,65,0.00,,,0.00,WeatherCatV1.20B785,2013-09-19 19:43:00,
2013-09-19 15:45:00,74.5,62.0,30.03,SW,231,3.0,5.0,65,0.00,,,0.00,WeatherCatV1.20B785,2013-09-19 19:45:00,
2013-09-19 15:48:00,74.8,62.7,30.03,SSW,210,2.0,3.0,66,0.00,,,0.00,WeatherCatV1.20B785,2013-09-19 19:48:00,
2013-09-19 15:50:00,74.9,61.9,30.03,SW,215,3.0,4.0,64,0.00,,,0.00,WeatherCatV1.20B785,2013-09-19 19:50:00,
2013-09-19 15:53:00,75.1,62.5,30.02,SSW,200,2.0,2.0,65,0.00,,,0.00,WeatherCatV1.20B785,2013-09-19 19:53:00,
2013-09-19 15:55:00,75.2,62.2,30.02,SW,228,1.0,3.0,64,0.00,,,0.00,WeatherCatV1.20B785,2013-09-19 19:55:00,
2013-09-19 15:58:00,75.4,61.5,30.02,SSW,194,3.0,6.0,62,0.00,,,0.00,WeatherCatV1.20B785,2013-09-19 19:58:00,
2013-09-19 16:00:00,75.4,61.0,30.02,SSW,212,2.0,6.0,61,0.00,,,0.00,WeatherCatV1.20B785,2013-09-19 20:00:00,
2013-09-19 16:03:00,75.4,60.1,30.02,SSW,208,2.0,6.0,59,0.00,,,0.00,WeatherCatV1.20B785,2013-09-19 20:03:00,
2013-09-19 16:05:00,75.5,61.1,30.02,SSW,200,3.0,3.0,61,0.00,,,0.00,WeatherCatV1.20B785,2013-09-19 20:05:00,
2013-09-19 16:08:00,75.5,61.5,30.02,WSW,253,3.0,3.0,62,0.00,,,0.00,WeatherCatV1.20B785,2013-09-19 20:08:00,
2013-09-19 16:10:00,75.4,61.0,30.02,WSW,241,2.0,3.0,61,0.00,,,0.00,WeatherCatV1.20B785,2013-09-19 20:10:00,
2013-09-19 16:13:00,75.5,61.5,30.02,SSW,195,0.0,4.0,62,0.00,,,0.00,WeatherCatV1.20B785,2013-09-19 20:13:00,
2013-09-19 16:15:00,75.5,61.6,30.02,WSW,240,2.0,4.0,62,0.00,,,0.00,WeatherCatV1.20B785,2013-09-19 20:15:00,
2013-09-19 16:18:00,75.9,61.5,30.02,South,191,2.0,4.0,61,0.00,,,0.00,WeatherCatV1.20B785,2013-09-19 20:18:00,
2013-09-19 16:20:00,76.0,62.0,30.02,SW,215,2.0,4.0,62,0.00,,,0.00,WeatherCatV1.20B785,2013-09-19 20:20:00,
2013-09-19 16:23:00,76.2,62.2,30.02,West,281,3.0,4.0,62,0.00,,,0.00,WeatherCatV1.20B785,2013-09-19 20:23:00,
2013-09-19 16:25:00,76.1,61.7,30.02,SW,231,2.0,3.0,61,0.00,,,0.00,WeatherCatV1.20B785,2013-09-19 20:25:00,
2013-09-19 16:28:00,75.9,62.4,30.02,SSE,163,3.0,4.0,63,0.00,,,0.00,WeatherCatV1.20B785,2013-09-19 20:28:00,
2013-09-19 16:30:00,75.9,62.4,30.02,SW,214,2.0,3.0,63,0.00,,,0.00,WeatherCatV1.20B785,2013-09-19 20:30:00,
2013-09-19 16:33:00,75.7,62.6,30.02,West,262,1.0,4.0,64,0.00,,,0.00,WeatherCatV1.20B785,2013-09-19 20:33:00,
2013-09-19 16:35:00,75.6,62.5,30.02,WSW,245,2.0,3.0,64,0.00,,,0.00,WeatherCatV1.20B785,2013-09-19 20:35:00,
2013-09-19 16:38:00,75.5,62.0,30.02,WNW,286,0.0,4.0,63,0.00,,,0.00,WeatherCatV1.20B785,2013-09-19 20:38:00,
2013-09-19 16:40:00,75.6,62.5,30.02,West,264,2.0,4.0,64,0.00,,,0.00,WeatherCatV1.20B785,2013-09-19 20:40:00,
2013-09-19 16:43:00,75.8,61.4,30.02,SSW,197,3.0,4.0,61,0.00,,,0.00,WeatherCatV1.20B785,2013-09-19 20:43:00,
2013-09-19 16:45:00,75.8,61.4,30.02,WSW,248,2.0,3.0,61,0.00,,,0.00,WeatherCatV1.20B785,2013-09-19 20:45:00,
2013-09-19 16:48:00,76.0,62.9,30.02,SW,235,1.0,2.0,64,0.00,,,0.00,WeatherCatV1.20B785,2013-09-19 20:48:00,
2013-09-19 16:50:00,76.0,62.9,30.02,WSW,248,1.0,1.0,64,0.00,,,0.00,WeatherCatV1.20B785,2013-09-19 20:50:00,
2013-09-19 16:53:00,76.2,62.2,30.02,SSW,205,2.0,8.0,62,0.00,,,0.00,WeatherCatV1.20B785,2013-09-19 20:53:00,
2013-09-19 16:55:00,76.1,62.1,30.02,SW,224,2.0,5.0,62,0.00,,,0.00,WeatherCatV1.20B785,2013-09-19 20:55:00,
2013-09-19 16:58:00,75.8,62.7,30.01,WNW,293,3.0,4.0,64,0.00,,,0.00,WeatherCatV1.20B785,2013-09-19 20:58:00,
2013-09-19 17:00:00,75.8,62.7,30.01,WSW,242,2.0,4.0,64,0.00,,,0.00,WeatherCatV1.20B785,2013-09-19 21:00:00,
2013-09-19 17:03:00,75.7,62.6,30.01,WSW,248,0.0,3.0,64,0.00,,,0.00,WeatherCatV1.20B785,2013-09-19 21:03:00,
2013-09-19 17:05:00,75.7,62.6,30.01,WSW,244,2.0,2.0,64,0.00,,,0.00,WeatherCatV1.20B785,2013-09-19 21:05:00,
2013-09-19 17:08:00,75.9,62.4,30.02,WNW,284,1.0,5.0,63,0.00,,,0.00,WeatherCatV1.20B785,2013-09-19 21:08:00,
2013-09-19 17:10:00,75.9,62.4,30.01,WSW,247,1.0,5.0,63,0.00,,,0.00,WeatherCatV1.20B785,2013-09-19 21:10:00,
2013-09-19 17:13:00,75.4,62.4,30.02,SSW,212,5.0,5.0,64,0.00,,,0.00,WeatherCatV1.20B785,2013-09-19 21:13:00,
2013-09-19 17:15:00,75.3,61.8,30.02,SW,236,2.0,5.0,63,0.00,,,0.00,WeatherCatV1.20B785,2013-09-19 21:15:00,
2013-09-19 17:18:00,75.2,62.6,30.02,South,183,3.0,4.0,65,0.00,,,0.00,WeatherCatV1.20B785,2013-09-19 21:18:00,
2013-09-19 17:20:00,75.2,62.6,30.02,SSW,204,3.0,4.0,65,0.00,,,0.00,WeatherCatV1.20B785,2013-09-19 21:20:00,
2013-09-19 17:23:00,75.1,62.1,30.02,South,186,2.0,4.0,64,0.00,,,0.00,WeatherCatV1.20B785,2013-09-19 21:23:00,
2013-09-19 17:25:00,75.1,62.1,30.02,SSW,194,3.0,4.0,64,0.00,,,0.00,WeatherCatV1.20B785,2013-09-19 21:25:00,
2013-09-19 17:28:00,75.2,61.7,30.02,SW,233,1.0,4.0,63,0.00,,,0.00,WeatherCatV1.20B785,2013-09-19 21:28:00,
2013-09-19 17:30:00,75.2,61.7,30.02,SSW,199,2.0,3.0,63,0.00,,,0.00,WeatherCatV1.20B785,2013-09-19 21:30:00,
2013-09-19 17:33:00,75.5,62.0,30.02,SW,221,0.0,3.0,63,0.00,,,0.00,WeatherCatV1.20B785,2013-09-19 21:33:00,
2013-09-19 17:35:00,75.5,62.0,30.02,SW,232,1.0,3.0,63,0.00,,,0.00,WeatherCatV1.20B785,2013-09-19 21:35:00,
2013-09-19 17:38:00,75.8,62.3,30.02,West,276,1.0,1.0,63,0.00,,,0.00,WeatherCatV1.20B785,2013-09-19 21:38:00,
2013-09-19 17:40:00,75.7,62.2,30.02,SW,228,1.0,1.0,63,0.00,,,0.00,WeatherCatV1.20B785,2013-09-19 21:40:00,
2013-09-19 17:43:00,75.3,61.4,30.03,SSW,210,2.0,4.0,62,0.00,,,0.00,WeatherCatV1.20B785,2013-09-19 21:43:00,
2013-09-19 17:45:00,75.3,62.3,30.03,SW,233,1.0,4.0,64,0.00,,,0.00,WeatherCatV1.20B785,2013-09-19 21:45:00,
2013-09-19 17:48:00,74.7,61.2,30.03,West,259,0.0,1.0,63,0.00,,,0.00,WeatherCatV1.20B785,2013-09-19 21:48:00,
2013-09-19 17:50:00,74.7,61.2,30.03,WSW,239,2.0,2.0,63,0.00,,,0.00,WeatherCatV1.20B785,2013-09-19 21:50:00,
2013-09-19 17:53:00,74.2,61.2,30.03,SW,224,0.0,3.0,64,0.00,,,0.00,WeatherCatV1.20B785,2013-09-19 21:53:00,
2013-09-19 17:55:00,74.1,61.6,30.03,SW,231,1.0,2.0,65,0.00,,,0.00,WeatherCatV1.20B785,2013-09-19 21:55:00,
2013-09-19 17:58:00,73.7,61.6,30.03,WSW,246,0.0,0.0,66,0.00,,,0.00,WeatherCatV1.20B785,2013-09-19 21:58:00,
2013-09-19 18:00:00,73.6,61.5,30.03,WSW,241,1.0,0.0,66,0.00,,,0.00,WeatherCatV1.20B785,2013-09-19 22:00:00,
2013-09-19 18:03:00,72.9,62.5,30.03,SW,217,1.0,2.0,70,0.00,,,0.00,WeatherCatV1.20B785,2013-09-19 22:03:00,
2013-09-19 18:05:00,72.8,62.4,30.03,SW,221,1.0,2.0,70,0.00,,,0.00,WeatherCatV1.20B785,2013-09-19 22:05:00,
2013-09-19 18:08:00,71.7,62.2,30.03,SW,221,0.0,2.0,72,0.00,,,0.00,WeatherCatV1.20B785,2013-09-19 22:08:00,
2013-09-19 18:10:00,71.7,62.2,30.03,SW,221,1.0,1.0,72,0.00,,,0.00,WeatherCatV1.20B785,2013-09-19 22:10:00,
2013-09-19 18:13:00,70.8,62.1,30.03,SW,218,0.0,1.0,74,0.00,,,0.00,WeatherCatV1.20B785,2013-09-19 22:13:00,
2013-09-19 18:15:00,70.7,62.0,30.03,SW,218,1.0,1.0,74,0.00,,,0.00,WeatherCatV1.20B785,2013-09-19 22:15:00,
2013-09-19 18:18:00,70.1,62.2,30.03,SW,219,0.0,1.0,76,0.00,,,0.00,WeatherCatV1.20B785,2013-09-19 22:18:00,
2013-09-19 18:20:00,70.1,62.2,30.03,SW,219,0.0,0.0,76,0.00,,,0.00,WeatherCatV1.20B785,2013-09-19 22:20:00,
2013-09-19 18:23:00,69.3,62.1,30.03,SW,222,1.0,1.0,78,0.00,,,0.00,WeatherCatV1.20B785,2013-09-19 22:23:00,
2013-09-19 18:25:00,69.4,61.9,30.03,SW,219,0.0,1.0,77,0.00,,,0.00,WeatherCatV1.20B785,2013-09-19 22:25:00,
2013-09-19 18:28:00,68.7,61.9,30.03,SW,219,0.0,2.0,79,0.00,,,0.00,WeatherCatV1.20B785,2013-09-19 22:28:00,
2013-09-19 18:30:00,68.8,62.0,30.03,SW,221,0.0,2.0,79,0.00,,,0.00,WeatherCatV1.20B785,2013-09-19 22:30:00,
2013-09-19 18:33:00,68.0,61.9,30.03,SW,217,0.0,0.0,81,0.00,,,0.00,WeatherCatV1.20B785,2013-09-19 22:33:00,
2013-09-19 18:35:00,68.1,62.0,30.03,SW,217,0.0,0.0,81,0.00,,,0.00,WeatherCatV1.20B785,2013-09-19 22:35:00,
2013-09-19 18:38:00,67.5,61.8,30.03,SW,217,0.0,0.0,82,0.00,,,0.00,WeatherCatV1.20B785,2013-09-19 22:38:00,
2013-09-19 18:40:00,67.4,61.7,30.03,SW,217,0.0,0.0,82,0.00,,,0.00,WeatherCatV1.20B785,2013-09-19 22:40:00,
2013-09-19 18:43:00,67.4,61.7,30.03,SW,217,0.0,0.0,82,0.00,,,0.00,WeatherCatV1.20B785,2013-09-19 22:43:00,
2013-09-19 18:45:00,67.3,61.6,30.03,SW,217,0.0,1.0,82,0.00,,,0.00,WeatherCatV1.20B785,2013-09-19 22:45:00,
2013-09-19 18:48:00,67.0,61.7,30.03,SW,217,0.0,0.0,83,0.00,,,0.00,WeatherCatV1.20B785,2013-09-19 22:48:00,
2013-09-19 18:50:00,66.8,61.5,30.03,SW,217,0.0,0.0,83,0.00,,,0.00,WeatherCatV1.20B785,2013-09-19 22:50:00,
2013-09-19 18:53:00,66.4,61.4,30.03,SW,217,0.0,0.0,84,0.00,,,0.00,WeatherCatV1.20B785,2013-09-19 22:53:00,
2013-09-19 18:55:00,66.2,61.2,30.03,SW,217,0.0,0.0,84,0.00,,,0.00,WeatherCatV1.20B785,2013-09-19 22:55:00,
2013-09-19 18:58:00,65.8,61.2,30.03,SW,217,0.0,0.0,85,0.00,,,0.00,WeatherCatV1.20B785,2013-09-19 22:58:00,
2013-09-19 19:00:00,65.5,60.9,30.03,SW,217,0.0,0.0,85,0.00,,,0.00,WeatherCatV1.20B785,2013-09-19 23:00:00,
2013-09-19 19:03:00,65.2,60.9,30.03,SSW,212,0.0,1.0,86,0.00,,,0.00,WeatherCatV1.20B785,2013-09-19 23:03:00,
2013-09-19 19:05:00,64.9,60.6,30.03,SW,214,0.0,0.0,86,0.00,,,0.00,WeatherCatV1.20B785,2013-09-19 23:05:00,
2013-09-19 19:08:00,64.7,60.4,30.03,SSW,213,0.0,0.0,86,0.00,,,0.00,WeatherCatV1.20B785,2013-09-19 23:08:00,
2013-09-19 19:10:00,64.4,60.1,30.03,SSW,213,0.0,0.0,86,0.00,,,0.00,WeatherCatV1.20B785,2013-09-19 23:10:00,
2013-09-19 19:13:00,64.1,60.2,30.03,SSW,212,0.0,0.0,87,0.00,,,0.00,WeatherCatV1.20B785,2013-09-19 23:13:00,
2013-09-19 19:15:00,63.9,60.0,30.03,SSW,213,0.0,0.0,87,0.00,,,0.00,WeatherCatV1.20B785,2013-09-19 23:15:00,
2013-09-19 19:18:00,63.7,59.8,30.03,SSW,212,0.0,0.0,87,0.00,,,0.00,WeatherCatV1.20B785,2013-09-19 23:18:00,
2013-09-19 19:20:00,63.4,59.5,30.03,SSW,212,0.0,0.0,87,0.00,,,0.00,WeatherCatV1.20B785,2013-09-19 23:20:00,
2013-09-19 19:23:00,63.1,59.2,30.02,SSW,213,0.0,0.0,87,0.00,,,0.00,WeatherCatV1.20B785,2013-09-19 23:23:00,
2013-09-19 19:25:00,62.8,58.9,30.02,SSW,212,0.0,0.0,87,0.00,,,0.00,WeatherCatV1.20B785,2013-09-19 23:25:00,
2013-09-19 19:28:00,62.6,59.0,30.02,SSW,213,0.0,0.0,88,0.00,,,0.00,WeatherCatV1.20B785,2013-09-19 23:28:00,
2013-09-19 19:30:00,62.4,58.8,30.02,SSW,212,0.0,0.0,88,0.00,,,0.00,WeatherCatV1.20B785,2013-09-19 23:30:00,
2013-09-19 19:33:00,62.1,58.5,30.02,SSW,213,0.0,0.0,88,0.00,,,0.00,WeatherCatV1.20B785,2013-09-19 23:33:00,
2013-09-19 19:35:00,61.9,58.3,30.02,SSW,212,0.0,0.0,88,0.00,,,0.00,WeatherCatV1.20B785,2013-09-19 23:35:00,
2013-09-19 19:38:00,61.7,58.1,30.02,SSW,212,0.0,0.0,88,0.00,,,0.00,WeatherCatV1.20B785,2013-09-19 23:38:00,
2013-09-19 19:40:00,61.6,58.0,30.02,SSW,212,0.0,0.0,88,0.00,,,0.00,WeatherCatV1.20B785,2013-09-19 23:40:00,
2013-09-19 19:43:00,61.3,57.7,30.02,SSW,213,0.0,0.0,88,0.00,,,0.00,WeatherCatV1.20B785,2013-09-19 23:43:00,
2013-09-19 19:45:00,61.1,57.5,30.02,SSW,212,0.0,0.0,88,0.00,,,0.00,WeatherCatV1.20B785,2013-09-19 23:45:00,
2013-09-19 19:48:00,60.9,57.3,30.02,SSW,212,0.0,0.0,88,0.00,,,0.00,WeatherCatV1.20B785,2013-09-19 23:48:00,
2013-09-19 19:50:00,60.8,57.2,30.02,SSW,212,0.0,0.0,88,0.00,,,0.00,WeatherCatV1.20B785,2013-09-19 23:50:00,
2013-09-19 19:53:00,60.5,56.9,30.02,SSW,212,0.0,0.0,88,0.00,,,0.00,WeatherCatV1.20B785,2013-09-19 23:53:00,
2013-09-19 19:55:00,60.3,56.7,30.02,SSW,212,0.0,0.0,88,0.00,,,0.00,WeatherCatV1.20B785,2013-09-19 23:55:00,
2013-09-19 19:58:00,60.0,56.4,30.02,SSW,212,0.0,0.0,88,0.00,,,0.00,WeatherCatV1.20B785,2013-09-19 23:58:00,
2013-09-19 20:00:00,59.9,56.3,30.02,SSW,212,0.0,0.0,88,0.00,,,0.00,WeatherCatV1.20B785,2013-09-20 00:00:00,
2013-09-19 20:03:00,59.7,56.5,30.02,SSW,213,0.0,0.0,89,0.00,,,0.00,WeatherCatV1.20B785,2013-09-20 00:03:00,
2013-09-19 20:05:00,59.7,56.4,30.02,SSW,212,0.0,0.0,89,0.00,,,0.00,WeatherCatV1.20B785,2013-09-20 00:05:00,
2013-09-19 20:08:00,59.3,56.0,30.02,SSW,213,0.0,0.0,89,0.00,,,0.00,WeatherCatV1.20B785,2013-09-20 00:08:00,
2013-09-19 20:10:00,59.2,56.0,30.02,SSW,212,0.0,0.0,89,0.00,,,0.00,WeatherCatV1.20B785,2013-09-20 00:10:00,
2013-09-19 20:13:00,59.2,56.0,30.02,SSW,212,0.0,0.0,89,0.00,,,0.00,WeatherCatV1.20B785,2013-09-20 00:13:00,
2013-09-19 20:15:00,59.1,55.8,30.02,SSW,212,0.0,0.0,89,0.00,,,0.00,WeatherCatV1.20B785,2013-09-20 00:15:00,
2013-09-19 20:18:00,58.8,55.6,30.02,SSW,212,0.0,0.0,89,0.00,,,0.00,WeatherCatV1.20B785,2013-09-20 00:18:00,
2013-09-19 20:20:00,58.8,55.6,30.02,SSW,212,0.0,0.0,89,0.00,,,0.00,WeatherCatV1.20B785,2013-09-20 00:20:00,
2013-09-19 20:23:00,58.7,55.2,30.02,SSW,213,0.0,1.0,88,0.00,,,0.00,WeatherCatV1.20B785,2013-09-20 00:23:00,
2013-09-19 20:25:00,58.8,55.3,30.02,SSW,212,0.0,0.0,88,0.00,,,0.00,WeatherCatV1.20B785,2013-09-20 00:25:00,
2013-09-19 20:28:00,58.8,55.2,30.02,SSW,213,0.0,0.0,88,0.00,,,0.00,WeatherCatV1.20B785,2013-09-20 00:28:00,
2013-09-19 20:30:00,58.8,55.3,30.02,SSW,212,0.0,0.0,88,0.00,,,0.00,WeatherCatV1.20B785,2013-09-20 00:30:00,
2013-09-19 20:33:00,58.7,55.2,30.02,SSW,213,0.0,0.0,88,0.00,,,0.00,WeatherCatV1.20B785,2013-09-20 00:33:00,
2013-09-19 20:35:00,58.7,55.5,30.02,SSW,212,0.0,0.0,89,0.00,,,0.00,WeatherCatV1.20B785,2013-09-20 00:35:00,
2013-09-19 20:38:00,58.6,55.0,30.02,SSW,212,0.0,0.0,88,0.00,,,0.00,WeatherCatV1.20B785,2013-09-20 00:38:00,
2013-09-19 20:40:00,58.6,55.1,30.03,SSW,212,0.0,0.0,88,0.00,,,0.00,WeatherCatV1.20B785,2013-09-20 00:40:00,
2013-09-19 20:43:00,58.7,55.2,30.02,SSW,212,0.0,0.0,88,0.00,,,0.00,WeatherCatV1.20B785,2013-09-20 00:43:00,
2013-09-19 20:45:00,58.7,55.2,30.03,SSW,212,0.0,0.0,88,0.00,,,0.00,WeatherCatV1.20B785,2013-09-20 00:45:00,
2013-09-19 20:48:00,58.6,55.4,30.03,SSW,213,0.0,0.0,89,0.00,,,0.00,WeatherCatV1.20B785,2013-09-20 00:48:00,
2013-09-19 20:50:00,58.5,55.3,30.03,SSW,212,0.0,0.0,89,0.00,,,0.00,WeatherCatV1.20B785,2013-09-20 00:50:00,
2013-09-19 20:53:00,58.3,55.1,30.03,SSE,165,0.0,1.0,89,0.00,,,0.00,WeatherCatV1.20B785,2013-09-20 00:53:00,
2013-09-19 20:55:00,58.2,55.0,30.03,South,183,0.0,0.0,89,0.00,,,0.00,WeatherCatV1.20B785,2013-09-20 00:55:00,
2013-09-19 20:58:00,58.2,54.7,30.03,SSE,166,0.0,0.0,88,0.00,,,0.00,WeatherCatV1.20B785,2013-09-20 00:58:00,
2013-09-19 21:00:00,58.4,54.9,30.02,South,171,0.0,0.0,88,0.00,,,0.00,WeatherCatV1.20B785,2013-09-20 01:00:00,
2013-09-19 21:03:00,58.5,55.0,30.02,SSE,167,0.0,0.0,88,0.00,,,0.00,WeatherCatV1.20B785,2013-09-20 01:03:00,
2013-09-19 21:05:00,58.6,55.1,30.02,SSE,167,0.0,0.0,88,0.00,,,0.00,WeatherCatV1.20B785,2013-09-20 01:05:00,
2013-09-19 21:08:00,58.7,55.2,30.02,SSW,203,0.0,0.0,88,0.00,,,0.00,WeatherCatV1.20B785,2013-09-20 01:08:00,
2013-09-19 21:10:00,58.8,55.3,30.02,South,188,0.0,0.0,88,0.00,,,0.00,WeatherCatV1.20B785,2013-09-20 01:10:00,
2013-09-19 21:13:00,58.7,55.2,30.02,SSW,203,0.0,0.0,88,0.00,,,0.00,WeatherCatV1.20B785,2013-09-20 01:13:00,
2013-09-19 21:15:00,58.7,55.2,30.02,SSW,199,0.0,0.0,88,0.00,,,0.00,WeatherCatV1.20B785,2013-09-20 01:15:00,
2013-09-19 21:18:00,58.6,55.0,30.02,SSW,203,0.0,0.0,88,0.00,,,0.00,WeatherCatV1.20B785,2013-09-20 01:18:00,
2013-09-19 21:20:00,58.4,55.2,30.02,SSW,202,0.0,0.0,89,0.00,,,0.00,WeatherCatV1.20B785,2013-09-20 01:20:00,
2013-09-19 21:24:00,58.0,54.8,30.02,SSW,203,0.0,0.0,89,0.00,,,0.00,WeatherCatV1.20B785,2013-09-20 01:24:00,
2013-09-19 21:25:00,57.9,54.7,30.02,SSW,203,0.0,0.0,89,0.00,,,0.00,WeatherCatV1.20B785,2013-09-20 01:25:00,
2013-09-19 21:29:00,57.6,54.4,30.02,SSW,203,0.0,0.0,89,0.00,,,0.00,WeatherCatV1.20B785,2013-09-20 01:29:00,
2013-09-19 21:30:00,57.5,54.3,30.02,SSW,203,0.0,0.0,89,0.00,,,0.00,WeatherCatV1.20B785,2013-09-20 01:30:00,
2013-09-19 21:34:00,57.2,54.0,30.01,SSW,203,0.0,0.0,89,0.00,,,0.00,WeatherCatV1.20B785,2013-09-20 01:34:00,
2013-09-19 21:35:00,57.2,54.0,30.01,SSW,203,0.0,0.0,89,0.00,,,0.00,WeatherCatV1.20B785,2013-09-20 01:35:00,
2013-09-19 21:39:00,56.8,53.6,30.01,SSW,203,0.0,0.0,89,0.00,,,0.00,WeatherCatV1.20B785,2013-09-20 01:39:00,
2013-09-19 21:40:00,56.8,53.6,30.01,SSW,203,0.0,0.0,89,0.00,,,0.00,WeatherCatV1.20B785,2013-09-20 01:40:00,
2013-09-19 21:44:00,56.7,53.5,30.01,SSW,201,0.0,0.0,89,0.00,,,0.00,WeatherCatV1.20B785,2013-09-20 01:44:00,
2013-09-19 21:45:00,56.7,53.5,30.01,SSW,202,0.0,0.0,89,0.00,,,0.00,WeatherCatV1.20B785,2013-09-20 01:45:00,
2013-09-19 21:49:00,56.9,53.4,30.01,SSW,195,0.0,0.0,88,0.00,,,0.00,WeatherCatV1.20B785,2013-09-20 01:49:00,
2013-09-19 21:50:00,56.9,53.4,30.01,SSW,198,0.0,0.0,88,0.00,,,0.00,WeatherCatV1.20B785,2013-09-20 01:50:00,
2013-09-19 21:54:00,57.2,53.7,30.00,SSW,197,0.0,0.0,88,0.00,,,0.00,WeatherCatV1.20B785,2013-09-20 01:54:00,
2013-09-19 21:55:00,57.2,53.7,30.00,SSW,196,0.0,0.0,88,0.00,,,0.00,WeatherCatV1.20B785,2013-09-20 01:55:00,
2013-09-19 21:59:00,57.1,53.6,30.00,SSW,201,0.0,0.0,88,0.00,,,0.00,WeatherCatV1.20B785,2013-09-20 01:59:00,
2013-09-19 22:00:00,57.2,53.7,30.00,SSW,199,0.0,0.0,88,0.00,,,0.00,WeatherCatV1.20B785,2013-09-20 02:00:00,
2013-09-19 22:04:00,57.4,53.9,30.00,SSW,200,0.0,0.0,88,0.00,,,0.00,WeatherCatV1.20B785,2013-09-20 02:04:00,
2013-09-19 22:05:00,57.4,53.9,30.00,SSW,200,0.0,0.0,88,0.00,,,0.00,WeatherCatV1.20B785,2013-09-20 02:05:00,
2013-09-19 22:09:00,57.5,54.0,30.01,SSW,200,0.0,0.0,88,0.00,,,0.00,WeatherCatV1.20B785,2013-09-20 02:09:00,
2013-09-19 22:10:00,57.5,54.0,30.01,SSW,200,0.0,0.0,88,0.00,,,0.00,WeatherCatV1.20B785,2013-09-20 02:10:00,
2013-09-19 22:14:00,57.6,54.1,30.00,SSW,200,0.0,0.0,88,0.00,,,0.00,WeatherCatV1.20B785,2013-09-20 02:14:00,
2013-09-19 22:15:00,57.6,54.1,30.00,SSW,200,0.0,0.0,88,0.00,,,0.00,WeatherCatV1.20B785,2013-09-20 02:15:00,
2013-09-19 22:19:00,57.7,54.2,30.00,SSW,200,0.0,0.0,88,0.00,,,0.00,WeatherCatV1.20B785,2013-09-20 02:19:00,
2013-09-19 22:20:00,57.7,54.2,30.00,SSW,200,0.0,0.0,88,0.00,,,0.00,WeatherCatV1.20B785,2013-09-20 02:20:00,
2013-09-19 22:24:00,57.6,54.1,30.00,SSW,200,0.0,0.0,88,0.00,,,0.00,WeatherCatV1.20B785,2013-09-20 02:24:00,
2013-09-19 22:25:00,57.6,54.1,30.01,SSW,200,0.0,0.0,88,0.00,,,0.00,WeatherCatV1.20B785,2013-09-20 02:25:00,
2013-09-19 22:29:00,57.4,54.2,30.00,SSW,200,0.0,0.0,89,0.00,,,0.00,WeatherCatV1.20B785,2013-09-20 02:29:00,
2013-09-19 22:30:00,57.4,54.2,30.01,SSW,200,0.0,0.0,89,0.00,,,0.00,WeatherCatV1.20B785,2013-09-20 02:30:00,
2013-09-19 22:34:00,56.8,53.6,30.01,SSW,200,0.0,0.0,89,0.00,,,0.00,WeatherCatV1.20B785,2013-09-20 02:34:00,
2013-09-19 22:35:00,56.7,53.5,30.00,SSW,200,0.0,0.0,89,0.00,,,0.00,WeatherCatV1.20B785,2013-09-20 02:35:00,
2013-09-19 22:39:00,56.2,53.0,30.00,SSW,200,0.0,0.0,89,0.00,,,0.00,WeatherCatV1.20B785,2013-09-20 02:39:00,
2013-09-19 22:40:00,56.1,52.9,30.00,SSW,200,0.0,0.0,89,0.00,,,0.00,WeatherCatV1.20B785,2013-09-20 02:40:00,
2013-09-19 22:44:00,55.8,52.6,30.00,SSW,200,0.0,0.0,89,0.00,,,0.00,WeatherCatV1.20B785,2013-09-20 02:44:00,
2013-09-19 22:45:00,55.7,52.5,30.00,SSW,200,0.0,0.0,89,0.00,,,0.00,WeatherCatV1.20B785,2013-09-20 02:45:00,
2013-09-19 22:49:00,55.7,52.2,30.00,SSW,200,0.0,0.0,88,0.00,,,0.00,WeatherCatV1.20B785,2013-09-20 02:49:00,
2013-09-19 22:50:00,55.8,52.3,30.00,SSW,200,0.0,0.0,88,0.00,,,0.00,WeatherCatV1.20B785,2013-09-20 02:50:00,
2013-09-19 22:54:00,56.2,52.7,30.00,SSW,201,0.0,0.0,88,0.00,,,0.00,WeatherCatV1.20B785,2013-09-20 02:54:00,
2013-09-19 22:55:00,56.3,52.8,30.00,SSW,200,0.0,0.0,88,0.00,,,0.00,WeatherCatV1.20B785,2013-09-20 02:55:00,
2013-09-19 22:59:00,56.6,53.1,30.01,SSW,200,0.0,0.0,88,0.00,,,0.00,WeatherCatV1.20B785,2013-09-20 02:59:00,
2013-09-19 23:00:00,56.6,53.1,30.01,SSW,201,0.0,0.0,88,0.00,,,0.00,WeatherCatV1.20B785,2013-09-20 03:00:00,
2013-09-19 23:04:00,56.1,52.6,30.01,SSW,201,0.0,0.0,88,0.00,,,0.00,WeatherCatV1.20B785,2013-09-20 03:04:00,
2013-09-19 23:05:00,56.0,52.8,30.01,SSW,201,0.0,0.0,89,0.00,,,0.00,WeatherCatV1.20B785,2013-09-20 03:05:00,
2013-09-19 23:09:00,55.4,52.2,30.01,SSW,201,0.0,0.0,89,0.00,,,0.00,WeatherCatV1.20B785,2013-09-20 03:09:00,
2013-09-19 23:10:00,55.3,52.1,30.01,SSW,201,0.0,0.0,89,0.00,,,0.00,WeatherCatV1.20B785,2013-09-20 03:10:00,
2013-09-19 23:14:00,54.9,51.7,30.01,SSW,201,0.0,0.0,89,0.00,,,0.00,WeatherCatV1.20B785,2013-09-20 03:14:00,
2013-09-19 23:15:00,54.8,51.6,30.01,SSW,201,0.0,0.0,89,0.00,,,0.00,WeatherCatV1.20B785,2013-09-20 03:15:00,
2013-09-19 23:19:00,54.7,51.5,30.01,SSW,201,0.0,0.0,89,0.00,,,0.00,WeatherCatV1.20B785,2013-09-20 03:19:00,
2013-09-19 23:20:00,54.6,51.4,30.01,SSW,201,0.0,0.0,89,0.00,,,0.00,WeatherCatV1.20B785,2013-09-20 03:20:00,
2013-09-19 23:24:00,54.3,51.1,30.01,SSW,201,0.0,0.0,89,0.00,,,0.00,WeatherCatV1.20B785,2013-09-20 03:24:00,
2013-09-19 23:25:00,54.3,51.1,30.01,SSW,201,0.0,0.0,89,0.00,,,0.00,WeatherCatV1.20B785,2013-09-20 03:25:00,
2013-09-19 23:30:00,53.9,50.7,30.01,SSW,201,0.0,0.0,89,0.00,,,0.00,WeatherCatV1.20B785,2013-09-20 03:30:00,
2013-09-19 23:35:00,53.7,50.5,30.01,SSW,200,0.0,0.0,89,0.00,,,0.00,WeatherCatV1.20B785,2013-09-20 03:35:00,
2013-09-19 23:40:00,53.7,50.5,30.01,SSW,201,0.0,0.0,89,0.00,,,0.00,WeatherCatV1.20B785,2013-09-20 03:40:00,
2013-09-19 23:45:00,53.4,50.2,30.01,SSW,201,0.0,0.0,89,0.00,,,0.00,WeatherCatV1.20B785,2013-09-20 03:45:00,
2013-09-19 23:50:00,53.3,50.1,30.02,SSW,200,0.0,0.0,89,0.00,,,0.00,WeatherCatV1.20B785,2013-09-20 03:50:00,
2013-09-19 23:55:00,53.2,50.0,30.02,SSW,201,0.0,0.0,89,0.00,,,0.00,WeatherCatV1.20B785,2013-09-20 03:55:00,